Location: Unspecified
(0.0000°N, 0.0000°E)
Time: 22:23:00
(UTC+00:00)

N. Korean satellite - Pass Details

Date: 18 July 2019
Orbit: 456 x 508 km, 97.2° (Epoch: 21 July)

Event Time Altitude Azimuth Distance (km) Brightness Sun altitude
Rises 05:31:54 0° 14° (NNE) 2,591 10.8 -8.0°
Reaches altitude 10° 05:33:58 10° 16° (NNE) 1,712 9.9 -7.5°
Maximum altitude 05:37:40 74° 101° (ESE) 531 6.9 -6.7°
Drops below altitude 10° 05:41:22 10° 186° (S) 1,721 9.1 -5.8°
Sets 05:43:27 0° 188° (S) 2,605 10.0 -5.3°
